Year,Month,Day,Hour,Minute,Value (Times are PST for temperature in C)
2017,07,06,00,00,16.30
2017,07,06,00,01,16.30
2017,07,06,00,02,16.30
2017,07,06,00,03,16.30
2017,07,06,00,04,16.30
2017,07,06,00,05,16.20
2017,07,06,00,06,16.20
2017,07,06,00,07,16.20
2017,07,06,00,08,16.20
2017,07,06,00,09,16.20
2017,07,06,00,10,16.20
2017,07,06,00,11,16.20
2017,07,06,00,12,16.20
2017,07,06,00,13,16.20
2017,07,06,00,14,16.20
2017,07,06,00,15,16.20
2017,07,06,00,16,16.10
2017,07,06,00,17,16.10
2017,07,06,00,18,16.10
2017,07,06,00,19,16.00
2017,07,06,00,20,16.00
2017,07,06,00,21,16.00
2017,07,06,00,22,15.90
2017,07,06,00,23,15.90
2017,07,06,00,24,15.90
2017,07,06,00,25,15.90
2017,07,06,00,26,15.90
2017,07,06,00,27,15.80
2017,07,06,00,28,15.80
2017,07,06,00,29,15.80
2017,07,06,00,30,15.80
2017,07,06,00,31,15.70
2017,07,06,00,32,15.70
2017,07,06,00,33,15.70
2017,07,06,00,34,15.60
2017,07,06,00,35,15.60
2017,07,06,00,36,15.60
2017,07,06,00,37,15.60
2017,07,06,00,38,15.50
2017,07,06,00,39,15.50
2017,07,06,00,40,15.50
2017,07,06,00,41,15.50
2017,07,06,00,42,15.50
2017,07,06,00,43,15.50
2017,07,06,00,44,15.50
2017,07,06,00,45,15.50
2017,07,06,00,46,15.50
2017,07,06,00,47,15.50
2017,07,06,00,48,15.50
2017,07,06,00,49,15.50
2017,07,06,00,50,15.50
2017,07,06,00,51,15.50
2017,07,06,00,52,15.50
2017,07,06,00,53,15.40
2017,07,06,00,54,15.40
2017,07,06,00,55,15.40
2017,07,06,00,56,15.40
2017,07,06,00,57,15.40
2017,07,06,00,58,15.30
2017,07,06,00,59,15.30
2017,07,06,01,00,15.30
2017,07,06,01,01,15.30
2017,07,06,01,02,15.30
2017,07,06,01,03,15.30
2017,07,06,01,04,15.30
2017,07,06,01,05,15.20
2017,07,06,01,06,15.20
2017,07,06,01,07,15.20
2017,07,06,01,08,15.20
2017,07,06,01,09,15.20
2017,07,06,01,10,15.20
2017,07,06,01,11,15.20
2017,07,06,01,12,15.20
2017,07,06,01,13,15.20
2017,07,06,01,14,15.20
2017,07,06,01,15,15.10
2017,07,06,01,16,15.10
2017,07,06,01,17,15.10
2017,07,06,01,18,15.10
2017,07,06,01,19,15.10
2017,07,06,01,20,15.10
2017,07,06,01,21,15.10
2017,07,06,01,22,15.10
2017,07,06,01,23,15.10
2017,07,06,01,24,15.10
2017,07,06,01,25,15.10
2017,07,06,01,26,15.10
2017,07,06,01,27,15.10
2017,07,06,01,28,15.10
2017,07,06,01,29,15.10
2017,07,06,01,30,15.00
2017,07,06,01,31,15.00
2017,07,06,01,32,15.00
2017,07,06,01,33,15.10
2017,07,06,01,34,15.10
2017,07,06,01,35,15.10
2017,07,06,01,36,15.10
2017,07,06,01,37,15.10
2017,07,06,01,38,15.10
2017,07,06,01,39,15.10
2017,07,06,01,40,15.10
2017,07,06,01,41,15.10
2017,07,06,01,42,15.10
2017,07,06,01,43,15.10
2017,07,06,01,44,15.10
2017,07,06,01,45,15.10
2017,07,06,01,46,15.10
2017,07,06,01,47,15.10
2017,07,06,01,48,15.10
2017,07,06,01,49,15.10
2017,07,06,01,50,15.10
2017,07,06,01,51,15.10
2017,07,06,01,52,15.10
2017,07,06,01,53,15.10
2017,07,06,01,54,15.10
2017,07,06,01,55,15.20
2017,07,06,01,56,15.20
2017,07,06,01,57,15.20
2017,07,06,01,58,15.20
2017,07,06,01,59,15.20
2017,07,06,02,00,15.20
2017,07,06,02,01,15.20
2017,07,06,02,02,15.30
2017,07,06,02,03,15.30
2017,07,06,02,04,15.30
2017,07,06,02,05,15.30
2017,07,06,02,06,15.30
2017,07,06,02,07,15.30
2017,07,06,02,08,15.30
2017,07,06,02,09,15.30
2017,07,06,02,10,15.30
2017,07,06,02,11,15.30
2017,07,06,02,12,15.30
2017,07,06,02,13,15.30
2017,07,06,02,14,15.30
2017,07,06,02,15,15.30
2017,07,06,02,16,15.30
2017,07,06,02,17,15.30
2017,07,06,02,18,15.30
2017,07,06,02,19,15.30
2017,07,06,02,20,15.30
2017,07,06,02,21,15.30
2017,07,06,02,22,15.30
2017,07,06,02,23,15.30
2017,07,06,02,24,15.30
2017,07,06,02,25,15.30
2017,07,06,02,26,15.30
2017,07,06,02,27,15.30
2017,07,06,02,28,15.30
2017,07,06,02,29,15.30
2017,07,06,02,30,15.30
2017,07,06,02,31,15.30
2017,07,06,02,32,15.30
2017,07,06,02,33,15.30
2017,07,06,02,34,15.30
2017,07,06,02,35,15.30
2017,07,06,02,36,15.30
2017,07,06,02,37,15.30
2017,07,06,02,38,15.30
2017,07,06,02,39,15.20
2017,07,06,02,40,15.20
2017,07,06,02,41,15.20
2017,07,06,02,42,15.20
2017,07,06,02,43,15.20
2017,07,06,02,44,15.10
2017,07,06,02,45,15.10
2017,07,06,02,46,15.10
2017,07,06,02,47,15.10
2017,07,06,02,48,15.10
2017,07,06,02,49,15.10
2017,07,06,02,50,15.10
2017,07,06,02,51,15.10
2017,07,06,02,52,15.10
2017,07,06,02,53,15.10
2017,07,06,02,54,15.00
2017,07,06,02,55,15.00
2017,07,06,02,56,15.00
2017,07,06,02,57,14.90
2017,07,06,02,58,14.90
2017,07,06,02,59,14.90
2017,07,06,03,00,14.80
2017,07,06,03,01,14.80
2017,07,06,03,02,14.80
2017,07,06,03,03,14.80
2017,07,06,03,04,14.80
2017,07,06,03,05,14.80
2017,07,06,03,06,14.80
2017,07,06,03,07,14.80
2017,07,06,03,08,14.90
2017,07,06,03,09,15.00
2017,07,06,03,10,15.10
2017,07,06,03,11,15.10
2017,07,06,03,12,15.20
2017,07,06,03,13,15.20
2017,07,06,03,14,15.30
2017,07,06,03,15,15.30
2017,07,06,03,16,15.30
2017,07,06,03,17,15.30
2017,07,06,03,18,15.40
2017,07,06,03,19,15.40
2017,07,06,03,20,15.30
2017,07,06,03,21,15.30
2017,07,06,03,22,15.30
2017,07,06,03,23,15.30
2017,07,06,03,24,15.30
2017,07,06,03,25,15.30
2017,07,06,03,26,15.30
2017,07,06,03,27,15.30
2017,07,06,03,28,15.30
2017,07,06,03,29,15.30
2017,07,06,03,30,15.20
2017,07,06,03,31,15.20
2017,07,06,03,32,15.10
2017,07,06,03,33,15.00
2017,07,06,03,34,15.00
2017,07,06,03,35,14.90
2017,07,06,03,36,14.90
2017,07,06,03,37,14.80
2017,07,06,03,38,14.80
2017,07,06,03,39,14.80
2017,07,06,03,40,14.70
2017,07,06,03,41,14.70
2017,07,06,03,42,14.70
2017,07,06,03,43,14.60
2017,07,06,03,44,14.60
2017,07,06,03,45,14.60
2017,07,06,03,46,14.60
2017,07,06,03,47,14.50
2017,07,06,03,48,14.50
2017,07,06,03,49,14.50
2017,07,06,03,50,14.40
2017,07,06,03,51,14.40
2017,07,06,03,52,14.40
2017,07,06,03,53,14.30
2017,07,06,03,54,14.30
2017,07,06,03,55,14.30
2017,07,06,03,56,14.20
2017,07,06,03,57,14.20
2017,07,06,03,58,14.20
2017,07,06,03,59,14.20
2017,07,06,04,00,14.10
2017,07,06,04,01,14.10
2017,07,06,04,02,14.10
2017,07,06,04,03,14.00
2017,07,06,04,04,14.00
2017,07,06,04,05,14.00
2017,07,06,04,06,13.90
2017,07,06,04,07,13.90
2017,07,06,04,08,13.90
2017,07,06,04,09,13.90
2017,07,06,04,10,13.90
2017,07,06,04,11,13.80
2017,07,06,04,12,13.80
2017,07,06,04,13,13.80
2017,07,06,04,14,13.80
2017,07,06,04,15,13.80
2017,07,06,04,16,13.80
2017,07,06,04,17,13.80
2017,07,06,04,18,13.70
2017,07,06,04,19,13.70
2017,07,06,04,20,13.70
2017,07,06,04,21,13.70
2017,07,06,04,22,13.70
2017,07,06,04,23,13.70
2017,07,06,04,24,13.80
2017,07,06,04,25,13.80
2017,07,06,04,26,13.80
2017,07,06,04,27,13.80
2017,07,06,04,28,13.80
2017,07,06,04,29,13.80
2017,07,06,04,30,13.80
2017,07,06,04,31,13.90
2017,07,06,04,32,13.90
2017,07,06,04,33,13.90
2017,07,06,04,34,14.00
2017,07,06,04,35,14.00
2017,07,06,04,36,14.00
2017,07,06,04,37,14.10
2017,07,06,04,38,14.10
2017,07,06,04,39,14.10
2017,07,06,04,40,14.10
2017,07,06,04,41,14.00
2017,07,06,04,42,14.00
2017,07,06,04,43,14.00
2017,07,06,04,44,13.90
2017,07,06,04,45,13.90
2017,07,06,04,46,13.90
2017,07,06,04,47,13.80
2017,07,06,04,48,13.80
2017,07,06,04,49,13.80
2017,07,06,04,50,13.80
2017,07,06,04,51,13.80
2017,07,06,04,52,13.70
2017,07,06,04,53,13.70
2017,07,06,04,54,13.70
2017,07,06,04,55,13.70
2017,07,06,04,56,13.60
2017,07,06,04,57,13.60
2017,07,06,04,58,13.60
2017,07,06,04,59,13.60
2017,07,06,05,00,13.60
2017,07,06,05,01,13.60
2017,07,06,05,02,13.60
2017,07,06,05,03,13.60
2017,07,06,05,04,13.60
2017,07,06,05,05,13.60
2017,07,06,05,06,13.70
2017,07,06,05,07,13.70
2017,07,06,05,08,13.70
2017,07,06,05,09,13.70
2017,07,06,05,10,13.70
2017,07,06,05,11,13.70
2017,07,06,05,12,13.70
2017,07,06,05,13,13.70
2017,07,06,05,14,13.70
2017,07,06,05,15,13.70
2017,07,06,05,16,13.60
2017,07,06,05,17,13.60
2017,07,06,05,18,13.60
2017,07,06,05,19,13.60
2017,07,06,05,20,13.50
2017,07,06,05,21,13.50
2017,07,06,05,22,13.40
2017,07,06,05,23,13.40
2017,07,06,05,24,13.30
2017,07,06,05,25,13.30
2017,07,06,05,26,13.30
2017,07,06,05,27,13.20
2017,07,06,05,28,13.20
2017,07,06,05,29,13.20
2017,07,06,05,30,13.20
2017,07,06,05,31,13.20
2017,07,06,05,32,13.10
2017,07,06,05,33,13.10
2017,07,06,05,34,13.10
2017,07,06,05,35,13.00
2017,07,06,05,36,13.00
2017,07,06,05,37,13.00
2017,07,06,05,38,13.00
2017,07,06,05,39,12.90
2017,07,06,05,40,12.90
2017,07,06,05,41,12.90
2017,07,06,05,42,12.90
2017,07,06,05,43,13.00
2017,07,06,05,44,13.00
2017,07,06,05,45,13.00
2017,07,06,05,46,12.90
2017,07,06,05,47,12.90
2017,07,06,05,48,12.90
2017,07,06,05,49,12.90
2017,07,06,05,50,12.90
2017,07,06,05,51,12.90
2017,07,06,05,52,12.90
2017,07,06,05,53,12.90
2017,07,06,05,54,12.90
2017,07,06,05,55,13.00
2017,07,06,05,56,13.00
2017,07,06,05,57,13.00
2017,07,06,05,58,13.00
2017,07,06,05,59,13.00
2017,07,06,06,00,13.00
2017,07,06,06,01,13.00
2017,07,06,06,02,13.00
2017,07,06,06,03,13.00
2017,07,06,06,04,13.00
2017,07,06,06,05,13.00
2017,07,06,06,06,13.00
2017,07,06,06,07,13.10
2017,07,06,06,08,13.10
2017,07,06,06,09,13.10
2017,07,06,06,10,13.10
2017,07,06,06,11,13.10
2017,07,06,06,12,13.10
2017,07,06,06,13,13.10
2017,07,06,06,14,13.10
2017,07,06,06,15,13.10
2017,07,06,06,16,13.10
2017,07,06,06,17,13.10
2017,07,06,06,18,13.10
2017,07,06,06,19,13.20
2017,07,06,06,20,13.20
2017,07,06,06,21,13.20
2017,07,06,06,22,13.20
2017,07,06,06,23,13.20
2017,07,06,06,24,13.20
2017,07,06,06,25,13.20
2017,07,06,06,26,13.30
2017,07,06,06,27,13.30
2017,07,06,06,28,13.30
2017,07,06,06,29,13.30
2017,07,06,06,30,13.30
2017,07,06,06,31,13.30
2017,07,06,06,32,13.30
2017,07,06,06,33,13.30
2017,07,06,06,34,13.40
2017,07,06,06,35,13.40
2017,07,06,06,36,13.40
2017,07,06,06,37,13.40
2017,07,06,06,38,13.40
2017,07,06,06,39,13.40
2017,07,06,06,40,13.50
2017,07,06,06,41,13.50
2017,07,06,06,42,13.50
2017,07,06,06,43,13.50
2017,07,06,06,44,13.60
2017,07,06,06,45,13.60
2017,07,06,06,46,13.60
2017,07,06,06,47,13.70
2017,07,06,06,48,13.70
2017,07,06,06,49,13.70
2017,07,06,06,50,13.70
2017,07,06,06,51,13.80
2017,07,06,06,52,13.80
2017,07,06,06,53,13.80
2017,07,06,06,54,13.90
2017,07,06,06,55,13.90
2017,07,06,06,56,14.00
2017,07,06,06,57,14.10
2017,07,06,06,58,14.10
2017,07,06,06,59,14.10
2017,07,06,07,00,14.20
2017,07,06,07,01,14.20
2017,07,06,07,02,14.30
2017,07,06,07,03,14.40
2017,07,06,07,04,14.50
2017,07,06,07,05,14.60
2017,07,06,07,06,14.60
2017,07,06,07,07,14.70
2017,07,06,07,08,14.80
2017,07,06,07,09,14.90
2017,07,06,07,10,15.00
2017,07,06,07,11,15.00
2017,07,06,07,12,15.10
2017,07,06,07,13,15.20
2017,07,06,07,14,15.30
2017,07,06,07,15,15.40
2017,07,06,07,16,15.50
2017,07,06,07,17,15.60
2017,07,06,07,18,15.70
2017,07,06,07,19,15.80
2017,07,06,07,20,16.00
2017,07,06,07,21,16.10
2017,07,06,07,22,16.30
2017,07,06,07,23,16.60
2017,07,06,07,24,16.80
2017,07,06,07,25,17.10
2017,07,06,07,26,17.30
2017,07,06,07,27,17.50
2017,07,06,07,28,17.70
2017,07,06,07,29,17.90
2017,07,06,07,30,18.00
2017,07,06,07,31,18.20
2017,07,06,07,32,18.30
2017,07,06,07,33,18.40
2017,07,06,07,34,18.50
2017,07,06,07,35,18.60
2017,07,06,07,36,18.70
2017,07,06,07,37,18.80
2017,07,06,07,38,18.80
2017,07,06,07,39,18.90
2017,07,06,07,40,19.00
2017,07,06,07,41,19.00
2017,07,06,07,42,19.00
2017,07,06,07,43,19.10
2017,07,06,07,44,19.10
2017,07,06,07,45,19.10
2017,07,06,07,46,19.10
2017,07,06,07,47,19.00
2017,07,06,07,48,19.00
2017,07,06,07,49,19.00
2017,07,06,07,50,19.10
2017,07,06,07,51,19.00
2017,07,06,07,52,18.90
2017,07,06,07,53,18.90
2017,07,06,07,54,18.80
2017,07,06,07,55,18.80
2017,07,06,07,56,18.80
2017,07,06,07,57,18.80
2017,07,06,07,58,18.80
2017,07,06,07,59,18.80
2017,07,06,08,00,18.80
2017,07,06,08,01,18.80
2017,07,06,08,02,18.80
2017,07,06,08,03,18.80
2017,07,06,08,04,18.80
2017,07,06,08,05,18.80
2017,07,06,08,06,18.80
2017,07,06,08,07,18.80
2017,07,06,08,08,18.70
2017,07,06,08,09,18.80
2017,07,06,08,10,18.80
2017,07,06,08,11,18.80
2017,07,06,08,12,18.80
2017,07,06,08,13,18.90
2017,07,06,08,14,18.90
2017,07,06,08,15,18.90
2017,07,06,08,16,18.90
2017,07,06,08,17,18.90
2017,07,06,08,18,18.90
2017,07,06,08,19,18.90
2017,07,06,08,20,18.80
2017,07,06,08,21,18.80
2017,07,06,08,22,18.80
2017,07,06,08,23,18.80
2017,07,06,08,24,18.80
2017,07,06,08,25,18.70
2017,07,06,08,26,18.70
2017,07,06,08,27,18.70
2017,07,06,08,28,18.70
2017,07,06,08,29,18.70
2017,07,06,08,30,18.70
2017,07,06,08,31,18.70
2017,07,06,08,32,18.60
2017,07,06,08,33,18.60
2017,07,06,08,34,18.60
2017,07,06,08,35,18.60
2017,07,06,08,36,18.60
2017,07,06,08,37,18.60
2017,07,06,08,38,18.60
2017,07,06,08,39,18.60
2017,07,06,08,40,18.50
2017,07,06,08,41,18.60
2017,07,06,08,42,18.60
2017,07,06,08,43,18.60
2017,07,06,08,44,18.60
2017,07,06,08,45,18.70
2017,07,06,08,46,18.70
2017,07,06,08,47,18.70
2017,07,06,08,48,18.70
2017,07,06,08,49,18.70
2017,07,06,08,50,18.80
2017,07,06,08,51,18.80
2017,07,06,08,52,18.90
2017,07,06,08,53,18.90
2017,07,06,08,54,18.90
2017,07,06,08,55,18.90
2017,07,06,08,56,18.90
2017,07,06,08,57,18.90
2017,07,06,08,58,18.80
2017,07,06,08,59,18.80
2017,07,06,09,00,18.80
2017,07,06,09,01,18.80
2017,07,06,09,02,18.80
2017,07,06,09,03,18.80
2017,07,06,09,04,18.80
2017,07,06,09,05,18.80
2017,07,06,09,06,18.80
2017,07,06,09,07,18.80
2017,07,06,09,08,18.80
2017,07,06,09,09,18.80
2017,07,06,09,10,18.80
2017,07,06,09,11,18.80
2017,07,06,09,12,18.80
2017,07,06,09,13,18.90
2017,07,06,09,14,18.90
2017,07,06,09,15,18.90
2017,07,06,09,16,18.90
2017,07,06,09,17,18.90
2017,07,06,09,18,18.90
2017,07,06,09,19,18.80
2017,07,06,09,20,18.80
2017,07,06,09,21,18.80
2017,07,06,09,22,18.90
2017,07,06,09,23,18.90
2017,07,06,09,24,18.90
2017,07,06,09,25,18.90
2017,07,06,09,26,18.80
2017,07,06,09,27,18.80
2017,07,06,09,28,18.90
2017,07,06,09,29,18.90
2017,07,06,09,30,18.80
2017,07,06,09,31,18.80
2017,07,06,09,32,18.70
2017,07,06,09,33,18.70
2017,07,06,09,34,18.70
2017,07,06,09,35,18.70
2017,07,06,09,36,18.80
2017,07,06,09,37,18.80
2017,07,06,09,38,18.80
2017,07,06,09,39,18.80
2017,07,06,09,40,18.80
2017,07,06,09,41,18.80
2017,07,06,09,42,18.80
2017,07,06,09,43,18.70
2017,07,06,09,44,18.70
2017,07,06,09,45,18.70
2017,07,06,09,46,18.70
2017,07,06,09,47,18.60
2017,07,06,09,48,18.60
2017,07,06,09,49,18.60
2017,07,06,09,50,18.70
2017,07,06,09,51,18.70
2017,07,06,09,52,18.70
2017,07,06,09,53,18.70
2017,07,06,09,54,18.70
2017,07,06,09,55,18.70
2017,07,06,09,56,18.70
2017,07,06,09,57,18.60
2017,07,06,09,58,18.60
2017,07,06,09,59,18.60
2017,07,06,10,00,18.60
2017,07,06,10,01,18.60
2017,07,06,10,02,18.60
2017,07,06,10,03,18.60
2017,07,06,10,04,18.60
2017,07,06,10,05,18.60
2017,07,06,10,06,18.50
2017,07,06,10,07,18.50
2017,07,06,10,08,18.50
2017,07,06,10,09,18.50
2017,07,06,10,10,18.60
2017,07,06,10,11,18.60
2017,07,06,10,12,18.60
2017,07,06,10,13,18.60
2017,07,06,10,14,18.70
2017,07,06,10,15,18.70
2017,07,06,10,16,18.70
2017,07,06,10,17,18.70
2017,07,06,10,18,18.70
2017,07,06,10,19,18.70
2017,07,06,10,20,18.70
2017,07,06,10,21,18.80
2017,07,06,10,22,18.80
2017,07,06,10,23,18.80
2017,07,06,10,24,18.80
2017,07,06,10,25,18.80
2017,07,06,10,26,18.80
2017,07,06,10,27,18.80
2017,07,06,10,28,18.80
2017,07,06,10,29,18.70
2017,07,06,10,30,18.80
2017,07,06,10,31,18.80
2017,07,06,10,32,18.80
2017,07,06,10,33,18.90
2017,07,06,10,34,18.90
2017,07,06,10,35,18.90
2017,07,06,10,36,18.90
2017,07,06,10,37,18.80
2017,07,06,10,38,18.70
2017,07,06,10,39,18.70
2017,07,06,10,40,18.70
2017,07,06,10,41,18.80
2017,07,06,10,42,18.80
2017,07,06,10,43,18.90
2017,07,06,10,44,18.90
2017,07,06,10,45,18.90
2017,07,06,10,46,18.90
2017,07,06,10,47,18.90
2017,07,06,10,48,19.00
2017,07,06,10,49,19.00
2017,07,06,10,50,19.00
2017,07,06,10,51,19.10
2017,07,06,10,52,19.20
2017,07,06,10,53,19.20
2017,07,06,10,54,19.20
2017,07,06,10,55,19.20
2017,07,06,10,56,19.20
2017,07,06,10,57,19.20
2017,07,06,10,58,19.20
2017,07,06,10,59,19.20
2017,07,06,11,00,19.20
2017,07,06,11,01,19.20
2017,07,06,11,02,19.20
2017,07,06,11,03,19.20
2017,07,06,11,04,19.30
2017,07,06,11,05,19.30
2017,07,06,11,06,19.30
2017,07,06,11,07,19.40
2017,07,06,11,08,19.40
2017,07,06,11,09,19.50
2017,07,06,11,10,19.50
2017,07,06,11,11,19.60
2017,07,06,11,12,19.60
2017,07,06,11,13,19.60
2017,07,06,11,14,19.60
2017,07,06,11,15,19.50
2017,07,06,11,16,19.40
2017,07,06,11,17,19.40
2017,07,06,11,18,19.40
2017,07,06,11,19,19.40
2017,07,06,11,20,19.40
2017,07,06,11,21,19.40
2017,07,06,11,22,19.40
2017,07,06,11,23,19.40
2017,07,06,11,24,19.40
2017,07,06,11,25,19.40
2017,07,06,11,26,19.40
2017,07,06,11,27,19.40
2017,07,06,11,28,19.40
2017,07,06,11,29,19.40
2017,07,06,11,30,19.40
2017,07,06,11,31,19.50
2017,07,06,11,32,19.50
2017,07,06,11,33,19.50
2017,07,06,11,34,19.60
2017,07,06,11,35,19.60
2017,07,06,11,36,19.70
2017,07,06,11,37,19.60
2017,07,06,11,38,19.60
2017,07,06,11,39,19.60
2017,07,06,11,40,19.50
2017,07,06,11,41,19.50
2017,07,06,11,42,19.40
2017,07,06,11,43,19.50
2017,07,06,11,44,19.50
2017,07,06,11,45,19.50
2017,07,06,11,46,19.50
2017,07,06,11,47,19.50
2017,07,06,11,48,19.50
2017,07,06,11,49,19.40
2017,07,06,11,50,19.40
2017,07,06,11,51,19.40
2017,07,06,11,52,19.50
2017,07,06,11,53,19.50
2017,07,06,11,54,19.50
2017,07,06,11,55,19.50
2017,07,06,11,56,19.60
2017,07,06,11,57,19.60
2017,07,06,11,58,19.60
2017,07,06,11,59,19.70
2017,07,06,12,00,19.70
2017,07,06,12,01,19.70
2017,07,06,12,02,19.70
2017,07,06,12,03,19.80
2017,07,06,12,04,19.90
2017,07,06,12,05,20.00
2017,07,06,12,06,20.10
2017,07,06,12,07,20.10
2017,07,06,12,08,20.10
2017,07,06,12,09,20.10
2017,07,06,12,10,20.10
2017,07,06,12,11,20.10
2017,07,06,12,12,20.10
2017,07,06,12,13,20.10
2017,07,06,12,14,20.10
2017,07,06,12,15,20.20
2017,07,06,12,16,20.20
2017,07,06,12,17,20.20
2017,07,06,12,18,20.20
2017,07,06,12,19,20.20
2017,07,06,12,20,20.30
2017,07,06,12,21,20.30
2017,07,06,12,22,20.40
2017,07,06,12,23,20.40
2017,07,06,12,24,20.50
2017,07,06,12,25,20.60
2017,07,06,12,26,20.60
2017,07,06,12,27,20.70
2017,07,06,12,28,20.80
2017,07,06,12,29,20.80
2017,07,06,12,30,20.80
2017,07,06,12,31,20.80
2017,07,06,12,32,20.70
2017,07,06,12,33,20.70
2017,07,06,12,34,20.70
2017,07,06,12,35,20.70
2017,07,06,12,36,20.70
2017,07,06,12,37,20.80
2017,07,06,12,38,20.90
2017,07,06,12,39,20.90
2017,07,06,12,40,20.90
2017,07,06,12,41,20.90
2017,07,06,12,42,21.00
2017,07,06,12,43,21.10
2017,07,06,12,44,21.10
2017,07,06,12,45,21.20
2017,07,06,12,46,21.30
2017,07,06,12,47,21.30
2017,07,06,12,48,21.30
2017,07,06,12,49,21.20
2017,07,06,12,50,21.10
2017,07,06,12,51,21.10
2017,07,06,12,52,21.00
2017,07,06,12,53,21.00
2017,07,06,12,54,21.00
2017,07,06,12,55,21.10
2017,07,06,12,56,21.10
2017,07,06,12,57,21.10
2017,07,06,12,58,21.20
2017,07,06,12,59,21.20
2017,07,06,13,00,21.20
2017,07,06,13,01,21.20
2017,07,06,13,02,21.20
2017,07,06,13,03,21.20
2017,07,06,13,04,21.10
2017,07,06,13,05,21.10
2017,07,06,13,06,21.10
2017,07,06,13,07,21.10
2017,07,06,13,08,21.10
2017,07,06,13,09,21.00
2017,07,06,13,10,21.10
2017,07,06,13,11,21.10
2017,07,06,13,12,21.20
2017,07,06,13,13,21.30
2017,07,06,13,14,21.30
2017,07,06,13,15,21.40
2017,07,06,13,16,21.50
2017,07,06,13,17,21.60
2017,07,06,13,18,21.70
2017,07,06,13,19,21.70
2017,07,06,13,20,21.80
2017,07,06,13,21,21.80
2017,07,06,13,22,21.90
2017,07,06,13,23,21.90
2017,07,06,13,24,21.90
2017,07,06,13,25,21.90
2017,07,06,13,26,21.90
2017,07,06,13,27,21.70
2017,07,06,13,28,21.60
2017,07,06,13,29,21.50
2017,07,06,13,30,21.40
2017,07,06,13,31,21.40
2017,07,06,13,32,21.30
2017,07,06,13,33,21.20
2017,07,06,13,34,21.20
2017,07,06,13,35,21.10
2017,07,06,13,36,21.10
2017,07,06,13,37,21.10
2017,07,06,13,38,21.10
2017,07,06,13,39,21.10
2017,07,06,13,40,21.10
2017,07,06,13,41,21.10
2017,07,06,13,42,21.10
2017,07,06,13,43,21.10
2017,07,06,13,44,21.20
2017,07,06,13,45,21.30
2017,07,06,13,46,21.30
2017,07,06,13,47,21.30
2017,07,06,13,48,21.30
2017,07,06,13,49,21.40
2017,07,06,13,50,21.40
2017,07,06,13,51,21.40
2017,07,06,13,52,21.50
2017,07,06,13,53,21.50
2017,07,06,13,54,21.60
2017,07,06,13,55,21.60
2017,07,06,13,56,21.60
2017,07,06,13,57,21.60
2017,07,06,13,58,21.70
2017,07,06,13,59,21.80
2017,07,06,14,00,21.80
2017,07,06,14,01,21.80
2017,07,06,14,02,21.80
2017,07,06,14,03,21.90
2017,07,06,14,04,21.90
2017,07,06,14,05,22.00
2017,07,06,14,06,22.10
2017,07,06,14,07,22.20
2017,07,06,14,08,22.30
2017,07,06,14,09,22.30
2017,07,06,14,10,22.30
2017,07,06,14,11,22.40
2017,07,06,14,12,22.40
2017,07,06,14,13,22.40
2017,07,06,14,14,22.50
2017,07,06,14,15,22.50
2017,07,06,14,16,22.50
2017,07,06,14,17,22.40
2017,07,06,14,18,22.40
2017,07,06,14,19,22.40
2017,07,06,14,20,22.30
2017,07,06,14,21,22.30
2017,07,06,14,22,22.30
2017,07,06,14,23,22.30
2017,07,06,14,24,22.30
2017,07,06,14,25,22.30
2017,07,06,14,26,22.30
2017,07,06,14,27,22.30
2017,07,06,14,28,22.30
2017,07,06,14,29,22.40
2017,07,06,14,30,22.40
2017,07,06,14,31,22.40
2017,07,06,14,32,22.40
2017,07,06,14,33,22.50
2017,07,06,14,34,22.50
2017,07,06,14,35,22.50
2017,07,06,14,36,22.60
2017,07,06,14,37,22.60
2017,07,06,14,38,22.60
2017,07,06,14,39,22.70
2017,07,06,14,40,22.70
2017,07,06,14,41,22.90
2017,07,06,14,42,23.00
2017,07,06,14,43,23.00
2017,07,06,14,44,23.10
2017,07,06,14,45,23.10
2017,07,06,14,46,23.20
2017,07,06,14,47,23.10
2017,07,06,14,48,23.10
2017,07,06,14,49,23.10
2017,07,06,14,50,23.10
2017,07,06,14,51,23.00
2017,07,06,14,52,23.00
2017,07,06,14,53,22.90
2017,07,06,14,54,22.90
2017,07,06,14,55,22.90
2017,07,06,14,56,22.90
2017,07,06,14,57,22.90
2017,07,06,14,58,22.90
2017,07,06,14,59,22.90
2017,07,06,15,00,23.00
2017,07,06,15,01,23.10
2017,07,06,15,02,23.10
2017,07,06,15,03,23.20
2017,07,06,15,04,23.10
2017,07,06,15,05,23.10
2017,07,06,15,06,23.10
2017,07,06,15,07,23.20
2017,07,06,15,08,23.20
2017,07,06,15,09,23.20
2017,07,06,15,10,23.20
2017,07,06,15,11,23.20
2017,07,06,15,12,23.10
2017,07,06,15,13,23.10
2017,07,06,15,14,23.10
2017,07,06,15,15,23.20
2017,07,06,15,16,23.30
2017,07,06,15,17,23.30
2017,07,06,15,18,23.30
2017,07,06,15,19,23.20
2017,07,06,15,20,23.10
2017,07,06,15,21,23.00
2017,07,06,15,22,22.90
2017,07,06,15,23,22.90
2017,07,06,15,24,23.00
2017,07,06,15,25,23.00
2017,07,06,15,26,23.00
2017,07,06,15,27,23.00
2017,07,06,15,28,23.00
2017,07,06,15,29,23.00
2017,07,06,15,30,23.10
2017,07,06,15,31,23.10
2017,07,06,15,32,23.10
2017,07,06,15,33,23.20
2017,07,06,15,34,23.20
2017,07,06,15,35,23.30
2017,07,06,15,36,23.30
2017,07,06,15,37,23.30
2017,07,06,15,38,23.30
2017,07,06,15,39,23.30
2017,07,06,15,40,23.30
2017,07,06,15,41,23.30
2017,07,06,15,42,23.30
2017,07,06,15,43,23.30
2017,07,06,15,44,23.40
2017,07,06,15,45,23.50
2017,07,06,15,46,23.60
2017,07,06,15,47,23.60
2017,07,06,15,48,23.60
2017,07,06,15,49,23.60
2017,07,06,15,50,23.60
2017,07,06,15,51,23.60
2017,07,06,15,52,23.60
2017,07,06,15,53,23.60
2017,07,06,15,54,23.60
2017,07,06,15,55,23.50
2017,07,06,15,56,23.50
2017,07,06,15,57,23.60
2017,07,06,15,58,23.70
2017,07,06,15,59,23.70
2017,07,06,16,00,23.70
2017,07,06,16,01,23.70
2017,07,06,16,02,23.70
2017,07,06,16,03,23.70
2017,07,06,16,04,23.70
2017,07,06,16,05,23.70
2017,07,06,16,06,23.80
2017,07,06,16,07,23.90
2017,07,06,16,08,23.90
2017,07,06,16,09,24.00
2017,07,06,16,10,24.00
2017,07,06,16,11,24.10
2017,07,06,16,12,24.20
2017,07,06,16,13,24.30
2017,07,06,16,14,24.40
2017,07,06,16,15,24.50
2017,07,06,16,16,24.50
2017,07,06,16,17,24.60
2017,07,06,16,18,24.70
2017,07,06,16,19,24.70
2017,07,06,16,20,24.70
2017,07,06,16,21,24.60
2017,07,06,16,22,24.60
2017,07,06,16,23,24.60
2017,07,06,16,24,24.50
2017,07,06,16,25,24.40
2017,07,06,16,26,24.20
2017,07,06,16,27,24.10
2017,07,06,16,28,24.00
2017,07,06,16,29,23.80
2017,07,06,16,30,23.70
2017,07,06,16,31,23.70
2017,07,06,16,32,23.70
2017,07,06,16,33,23.70
2017,07,06,16,34,23.60
2017,07,06,16,35,23.60
2017,07,06,16,36,23.60
2017,07,06,16,37,23.70
2017,07,06,16,38,23.70
2017,07,06,16,39,23.70
2017,07,06,16,40,23.80
2017,07,06,16,41,23.80
2017,07,06,16,42,23.90
2017,07,06,16,43,23.90
2017,07,06,16,44,24.00
2017,07,06,16,45,24.00
2017,07,06,16,46,24.00
2017,07,06,16,47,24.00
2017,07,06,16,48,24.10
2017,07,06,16,49,24.10
2017,07,06,16,50,24.10
2017,07,06,16,51,24.10
2017,07,06,16,52,24.20
2017,07,06,16,53,24.20
2017,07,06,16,54,24.30
2017,07,06,16,55,24.50
2017,07,06,16,56,24.60
2017,07,06,16,57,24.70
2017,07,06,16,58,24.70
2017,07,06,16,59,24.70
2017,07,06,17,00,24.70
2017,07,06,17,01,24.70
2017,07,06,17,02,24.70
2017,07,06,17,03,24.70
2017,07,06,17,04,24.70
2017,07,06,17,05,24.70
2017,07,06,17,06,24.80
2017,07,06,17,07,24.80
2017,07,06,17,08,24.90
2017,07,06,17,09,25.00
2017,07,06,17,10,25.10
2017,07,06,17,11,25.10
2017,07,06,17,12,25.20
2017,07,06,17,13,25.20
2017,07,06,17,14,25.20
2017,07,06,17,15,25.10
2017,07,06,17,16,25.00
2017,07,06,17,17,25.00
2017,07,06,17,18,25.00
2017,07,06,17,19,25.10